Key West NAF, FL

11:22 PM EST on February 23, 2018 (GMT -0500)
Key West Naval Air Station

Weather History for KNQX - February, 2013

Change the Weather History Date:

Tuesday, February 12, 2013

  Actual Average Record
Temperature  
Mean Temperature 77 °F -  
Max Temperature 81 °F 74 °F 85 °F (1982)
Min Temperature 73 °F 64 °F 51 °F (1973)
Cooling Degree Days 12    
Growing Degree Days 27 (Base 50)    
Moisture  
Dew Point 70 °F    
Average Humidity 78    
Maximum Humidity 87    
Minimum Humidity 67    
Precipitation  
Precipitation 0.00 in - - ()
Sea Level Pressure  
Sea Level Pressure 30.05 in    
Wind  
Wind Speed 10 mph (SE)    
Max Wind Speed 14 mph    
Max Gust Speed 21 mph    
Visibility 10 miles    
Events      
Averages and records for this station are not official NWS values.
T = Trace of Precipitation, MM = Missing Value Source: NWS Daily Summary

Daily Weather History Graph

Daily Weather History Graph

Search for Another Location

Airport or City:

Trip Planner

Search our weather history database for the weather conditions in past years. The results will help you decide how hot, cold, wet, or windy it might be!

Date:

Astronomy

Feb. 12, 2013 Rise Set
Actual Time 7:02 AM EST 6:19 PM EST
Civil Twilight 6:39 AM EST 6:43 PM EST
Nautical Twilight 6:12 AM EST 7:10 PM EST
Astronomical Twilight 5:45 AM EST 7:36 PM EST
Moon 8:21 AM EST (2/12) 8:53 PM EST (2/12)
Length of Visible Light 12h 04m
Length of Day
11h 17m
Waxing Crescent, 7% of the Moon is Illuminated
Feb 12
Waxing Crescent
Feb 17
First Quarter
Feb 25
Full
Mar 4
Last Quarter
Mar 11
New

Hourly Weather History & Observations

Time (EST) Temp. Heat Index Dew Point Humidity Pressure Visibility Wind Dir Wind Speed Gust Speed Precip Events Conditions
12:53 AM 75.0 °F - 68.0 °F 79% 30.10 in 10.0 mi SE 11.5 mph - N/A   Scattered Clouds
1:11 AM 75.2 °F - 69.8 °F 83% 30.10 in 10.0 mi SE 11.5 mph - N/A   Mostly Cloudy
1:53 AM 75.0 °F - 68.0 °F 79% 30.09 in 10.0 mi SE 12.7 mph - N/A   Overcast
2:51 AM 75.2 °F - 68.0 °F 78% 30.08 in 10.0 mi SE 10.4 mph - N/A   Overcast
2:53 AM 75.0 °F - 68.0 °F 79% 30.08 in 10.0 mi SE 9.2 mph - N/A   Overcast
3:15 AM 75.2 °F - 68.0 °F 78% 30.08 in 10.0 mi SE 9.2 mph - N/A   Mostly Cloudy
3:53 AM 75.0 °F - 68.0 °F 79% 30.07 in 10.0 mi SE 9.2 mph - N/A   Mostly Cloudy
4:21 AM 75.2 °F - 69.8 °F 83% 30.07 in 10.0 mi SE 8.1 mph - N/A   Mostly Cloudy
4:28 AM 75.2 °F - 68.0 °F 78% 30.07 in 10.0 mi SE 9.2 mph - N/A   Scattered Clouds
4:53 AM 73.9 °F - 68.0 °F 82% 30.07 in 10.0 mi SE 8.1 mph - N/A   Scattered Clouds
5:53 AM 73.9 °F - 69.1 °F 85% 30.07 in 10.0 mi ESE 8.1 mph - N/A   Scattered Clouds
6:53 AM 75.0 °F - 70.0 °F 84% 30.08 in 10.0 mi SE 8.1 mph - N/A   Mostly Cloudy
7:53 AM 75.9 °F - 70.0 °F 82% 30.09 in 10.0 mi SSE 11.5 mph - N/A   Mostly Cloudy
8:53 AM 78.1 °F - 70.0 °F 76% 30.09 in 10.0 mi SSE 13.8 mph - N/A   Scattered Clouds
9:53 AM 80.1 °F 82.9 °F 69.1 °F 69% 30.10 in 10.0 mi SSE 12.7 mph - N/A   Partly Cloudy
10:53 AM 81.0 °F 84.1 °F 69.1 °F 67% 30.11 in 10.0 mi SSE 13.8 mph 20.7 mph N/A   Partly Cloudy
11:53 AM 81.0 °F 84.4 °F 70.0 °F 69% 30.09 in 10.0 mi South 13.8 mph 20.7 mph N/A   Partly Cloudy
12:53 PM 81.0 °F 84.4 °F 70.0 °F 69% 30.08 in 10.0 mi SSE 10.4 mph - N/A   Partly Cloudy
1:53 PM 80.1 °F 82.9 °F 69.1 °F 69% 30.05 in 10.0 mi SSE 13.8 mph - N/A   Partly Cloudy
2:53 PM 81.0 °F 84.1 °F 69.1 °F 67% 30.03 in 10.0 mi SE 12.7 mph - N/A   Partly Cloudy
3:53 PM 80.1 °F 83.2 °F 70.0 °F 71% 30.01 in 10.0 mi SE 10.4 mph - N/A   Clear
4:53 PM 79.0 °F - 70.0 °F 74% 30.00 in 10.0 mi SE 11.5 mph - N/A   Clear
5:53 PM 77.0 °F - 70.0 °F 79% 29.98 in 10.0 mi SE 9.2 mph - N/A   Clear
6:53 PM 75.0 °F - 70.0 °F 84% 29.97 in 10.0 mi ESE 8.1 mph - N/A   Partly Cloudy
7:53 PM 75.0 °F - 71.1 °F 87% 29.99 in 10.0 mi ESE 6.9 mph - N/A   Clear
8:53 PM 75.0 °F - 71.1 °F 87% 29.99 in 10.0 mi ESE 6.9 mph - N/A   Clear
9:53 PM 75.9 °F - 71.1 °F 85% 30.00 in 10.0 mi SE 8.1 mph - N/A   Scattered Clouds
10:53 PM 75.9 °F - 72.0 °F 87% 30.02 in 10.0 mi SE 6.9 mph - N/A   Overcast
11:53 PM 75.9 °F - 72.0 °F 87% 30.02 in 10.0 mi SE 5.8 mph - N/A   Scattered Clouds